Back to catalog

COSMOS 397 DEB

AliveUNKNOWN
NORAD 5018·DEBRIS·🇷🇺 Russia

Launched Feb 25, 1971 from Baikonur Cosmodrome

Loading…

Next Passes (next 24 hours)

TLE

FreshSource: Space-Track

Epoch: Sep 14, 2026, 12:32 UTC

1 05018U 71015M   26257.52242054  .00000002  00000-0  37834-4 0  9995
2 05018  65.7110 290.4863 0997931 172.9334 188.7048 12.80572562590531

Track COSMOS 397 DEB in real time with AllMySat

Download on the App Store